Location: Chaumontel
(49.1247°N, 2.4324°E)
Time: 05:45:49
(UTC+00:00)

COSMOS 2428 - Pass Details

Date: 09 August 2024
Orbit: 842 x 857 km, 70.9° (Epoch: 08 September)

Event Time Altitude Azimuth Distance (km) Brightness Sun altitude
Exits shadow 00:41:54 12° 117° (ESE) 2,321 4.8 -24.3°
Maximum altitude 00:43:47 14° 96° (E) 2,198 4.9 -24.3°
Drops below altitude 10° 00:46:35 10° 67° (ENE) 2,481 5.6 -24.1°
Sets 00:50:15 0° 43° (NE) 3,426 6.8 -24.0°
